Theta_e
299 301 302 301 301 299 299 301 297 299 298 303 305 309 310 309 306 305 304 303 302 302 303 303 303 303 304 305 305 306 306 307 307 309 309 308 307 308 310 310 309 307 303 304
299 301 301 299 301 301 301 300 299 299 299 305 305 308 305 305 305 304 303 303 303 303 302 302 303 303 303 304 305 306 306 306 307 308 308 307 306 307 308 310 310 306 303 303
295 299 299 295 299 300 300 302 301 298 304 304 303 306 307 306 306 305 304 303 303 302 302 303 303 303 303 304 305 305 306 306 307 307 306 305 305 306 307 309 310 306 303 303
295 297 289 300 304 303 302 302 303 303 304 304 305 305 307 308 307 305 304 303 303 303 303 303 304 304 304 304 305 305 306 305 306 305 302 302 304 304 308 309 309 306 305 303
298 294 296 300 302 301 300 301 306 305 303 302 302 304 302 305 307 307 306 305 305 304 304 304 303 303 304 303 304 304 305 305 305 305 300 300 301 302 305 308 308 306 303 303
296 293 290 300 304 305 304 297 306 307 304 303 303 303 307 305 305 305 305 305 303 303 304 304 303 302 303 303 304 304 305 306 306 305 301 299 300 301 303 304 303 302 302 303
295 296 298 306 304 306 295 299 306 308 307 305 305 308 305 305 304 305 304 303 303 303 302 303 303 303 303 303 304 305 306 307 308 306 305 302 301 302 302 302 303 303 302 304
296 295 293 307 305 301 308 307 309 308 307 306 305 303 304 304 302 302 302 301 302 301 302 303 303 303 303 303 305 306 307 308 308 309 305 304 305 305 303 303 303 303 303 303
304 305 310 310 310 311 311 310 309 309 308 307 304 303 303 302 302 302 302 301 302 302 302 302 304 304 303 305 305 307 307 308 308 307 308 306 305 306 304 305 303 302 300 300
303 308 307 310 311 311 310 310 311 311 308 307 306 304 302 302 301 301 301 301 301 301 301 301 303 304 305 305 307 307 307 307 308 307 306 308 306 305 304 304 304 303 302 301
303 305 308 311 312 312 309 309 308 308 308 308 306 304 303 301 301 300 300 301 302 301 301 302 304 304 306 307 307 307 306 306 307 306 306 306 306 305 305 307 304 304 305 304
304 313 313 312 316 312 309 309 309 307 305 306 307 304 303 302 301 301 300 301 301 302 302 303 305 305 306 307 306 306 306 305 305 305 305 305 305 306 296 294 293 292 291 294
310 313 312 312 314 312 311 310 309 309 309 305 305 305 304 302 301 300 301 301 301 302 304 304 305 305 307 307 307 307 308 308 308 303 306 305 305 305 304 302 293 293 291 291
310 312 310 311 310 310 310 309 308 308 308 307 305 304 303 302 300 301 301 302 303 304 304 305 305 306 307 307 307 307 308 297 307 307 307 305 305 305 305 303 303 304 298 295
310 311 312 313 310 310 309 307 306 305 304 303 304 303 302 301 300 301 302 303 304 304 304 305 305 306 308 308 306 307 307 308 308 307 306 302 304 304 304 304 304 303 304 301
310 309 309 311 309 308 308 307 307 305 304 303 303 303 303 303 302 302 303 303 302 302 304 305 305 307 308 307 307 308 308 300 298 307 305 304 305 304 304 304 304 304 304 304
307 306 307 307 308 308 308 309 309 306 305 304 304 304 302 302 301 301 302 304 304 305 306 306 306 308 307 308 308 308 309 310 300 306 305 304 304 304 304 304 304 303 304 300
313 313 314 315 310 308 307 308 308 306 305 305 304 303 302 302 301 301 302 304 305 305 307 308 308 308 308 309 310 309 309 308 308 305 304 304 303 305 305 304 303 303 304 302
310 311 312 312 311 310 308 308 308 308 306 305 304 303 304 303 302 303 304 304 304 304 306 308 301 302 309 306 303 307 308 307 304 305 305 299 305 305 304 304 304 304 304 304
307 311 311 310 309 309 308 309 308 306 306 306 305 303 302 303 303 303 305 304 306 306 310 309 307 309 307 305 297 304 303 303 304 305 304 304 304 304 304 298 302 303 303 303
306 309 310 309 308 309 309 308 307 306 306 306 305 304 304 304 303 305 304 303 307 307 308 301 308 308 309 305 304 304 303 306 305 304 303 303 303 301 300 299 299 299 299 300
306 308 310 309 308 308 309 309 309 307 306 306 306 305 304 303 304 305 307 305 308 295 305 309 309 301 306 293 306 305 306 305 304 303 302 301 299 298 297 297 296 296 296 297
309 308 310 309 309 309 308 308 308 307 306 306 305 305 304 304 305 304 303 307 309 301 309 309 293 287 286 304 306 305 304 302 301 300 299 298 297 296 295 294 295 294 294 294
309 309 310 311 310 307 306 307 308 308 308 307 307 307 306 304 305 308 309 299 292 297 307 299 293 287 291 305 304 302 301 300 299 298 296 291 295 295 294 293 292 292 292 291
309 310 309 308 307 308 308 307 307 306 306 306 306 307 307 308 306 307 308 308 292 302 303 286 287 288 303 303 302 300 299 298 297 296 295 294 294 293 292 292 291 290 291 291
309 308 309 309 310 308 307 307 306 306 306 305 306 307 307 306 308 308 309 304 308 299 304 301 302 303 302 301 300 298 297 296 295 293 293 293 292 292 291 291 290 290 290 291
308 303 307 306 308 307 308 307 306 305 305 306 305 307 305 304 306 306 301 308 304 302 303 301 301 299 300 299 297 295 294 293 290 294 293 292 292 291 290 290 291 292 293 293
Wind_Speed
4 7 4 6 10 10 9 6 8 12 8 11 6 9 10 11 13 15 16 15 14 12 9 8 6 5 3 2 2 3 3 2 5 6 6 6 6 5 5 4 5 7 9 8
4 4 4 3 5 8 9 7 10 9 12 5 1 6 11 14 16 16 16 15 14 12 10 8 6 5 4 3 3 1 1 3 5 5 6 6 7 7 5 4 5 6 9 9
4 2 4 3 7 6 3 5 5 8 7 4 5 8 11 14 16 15 15 16 14 12 10 8 7 6 5 4 3 3 0 3 5 6 6 6 6 8 7 5 4 5 7 8
6 4 5 1 1 2 6 6 8 5 2 2 1 3 5 9 13 13 14 15 13 11 9 8 7 6 5 4 3 3 1 3 5 5 6 5 6 7 7 5 4 4 6 6
5 4 3 4 5 6 6 5 9 8 5 5 7 5 3 7 10 11 13 12 11 10 9 9 7 6 5 5 4 4 1 3 5 5 6 6 6 6 6 5 5 5 6 6
4 4 6 2 2 3 3 7 7 7 9 11 10 4 3 12 11 12 12 12 12 11 9 8 7 7 6 5 5 4 1 3 4 5 5 6 5 6 5 5 5 5 5 4
5 3 3 6 6 6 4 1 7 9 11 14 7 2 5 13 11 12 12 12 11 10 8 8 8 7 6 6 6 3 2 2 2 2 2 3 4 4 4 4 4 4 4 4
4 3 6 8 7 6 2 3 6 9 11 13 7 8 12 12 13 13 13 12 10 9 9 8 7 7 6 6 4 2 3 3 2 1 2 2 2 2 3 3 3 3 5 5
8 6 2 10 1 4 4 4 6 10 10 13 12 9 12 13 13 12 12 10 9 9 10 9 7 6 7 5 4 1 4 3 2 3 3 3 4 5 5 4 4 4 4 5
4 6 6 6 5 3 5 2 6 7 13 14 12 13 12 12 11 11 10 10 9 10 10 9 7 6 5 5 2 4 4 2 1 2 3 3 4 4 5 5 5 5 5 6
0 2 2 7 8 7 8 7 10 10 9 12 13 13 13 12 12 10 10 9 9 9 9 9 8 7 6 5 3 2 2 1 1 1 3 4 4 4 5 6 6 7 6 5
4 9 7 4 11 12 13 13 13 14 12 10 11 14 13 11 10 11 10 10 9 10 9 10 8 6 5 5 4 2 2 0 2 3 3 3 5 6 9 12 10 11 14 10
2 2 3 4 9 11 11 12 12 11 12 15 10 12 12 12 11 11 10 11 11 12 11 9 8 7 6 5 4 3 2 1 2 4 3 4 4 5 6 3 14 11 11 11
2 7 4 6 6 11 10 11 10 10 11 10 11 11 12 11 12 11 12 12 12 11 10 8 7 6 5 5 4 3 4 4 4 4 4 4 5 5 5 5 7 8 6 7
5 3 5 11 13 12 13 14 13 12 11 11 10 12 12 13 13 12 12 12 11 10 9 7 6 6 5 5 5 5 5 3 3 4 4 5 6 5 5 6 7 8 8 6
6 1 4 8 12 14 15 15 14 13 12 12 12 12 12 11 12 12 13 12 11 10 9 7 6 5 5 6 5 5 6 7 5 5 5 5 4 4 5 5 7 7 7 8
8 5 5 5 11 15 17 14 13 14 13 13 12 12 12 11 12 12 13 11 10 8 7 7 6 4 5 6 7 5 4 4 3 5 5 5 4 4 5 6 6 7 7 7
11 6 9 8 15 14 13 12 13 15 13 13 13 13 12 12 12 13 13 11 8 6 6 6 5 5 5 6 6 5 5 4 4 5 4 4 4 4 5 6 6 7 7 5
10 13 7 7 11 12 13 14 14 13 13 14 14 13 11 11 12 13 12 10 9 8 7 7 6 6 5 5 4 5 5 5 4 3 3 3 3 5 6 6 6 7 7 7
11 9 7 7 9 12 13 12 14 13 13 13 12 11 11 11 12 12 11 10 9 6 5 6 7 5 4 4 3 5 4 4 3 2 4 4 5 5 6 6 7 7 7 7
12 10 11 11 11 12 13 15 15 14 14 14 14 13 11 11 12 12 10 8 9 6 4 6 6 4 4 3 4 3 3 1 2 4 4 5 5 6 6 7 7 7 7 7
8 10 12 12 13 13 13 14 14 14 14 13 11 11 12 13 12 11 8 7 6 8 5 4 5 6 2 2 2 1 3 5 5 4 5 5 5 6 6 6 6 6 7 7
6 9 10 14 15 14 14 14 14 15 15 14 13 13 12 11 11 10 8 6 6 7 5 4 5 5 5 3 4 5 6 6 6 6 5 5 5 5 5 6 6 6 6 6
6 11 12 11 14 15 15 13 12 12 12 12 12 12 12 10 8 7 5 9 9 9 5 5 6 5 4 6 7 7 6 6 6 6 6 5 6 6 6 6 6 6 6 6
7 11 14 15 15 12 14 15 13 11 12 11 11 11 11 8 10 8 8 8 8 8 7 5 7 6 6 7 7 7 6 6 6 6 6 6 6 6 6 6 7 7 6 6
9 8 10 13 10 12 12 12 10 9 10 10 9 9 8 7 9 9 8 8 7 7 8 8 7 7 7 8 8 8 7 7 7 7 7 7 7 6 6 7 6 6 6 6
8 9 10 9 8 11 11 11 12 11 10 10 11 9 9 7 9 10 9 8 8 7 8 8 8 8 8 8 8 8 8 8 7 7 7 7 6 6 6 6 6 6 7 7
Wind_Direction
97 126 139 144 172 177 208 226 229 273 239 267 272 225 191 176 171 169 173 172 173 172 168 167 166 166 162 121 109 41 88 42 18 360 1 2 4 344 329 349 14 16 17 21
113 118 130 181 200 213 234 240 248 259 260 271 65 142 165 177 176 178 177 177 174 170 166 169 176 179 167 152 126 79 131 18 4 358 360 7 5 358 347 355 13 18 24 16
129 118 123 252 239 212 229 225 260 245 295 169 181 195 191 182 186 183 178 176 173 171 169 170 175 178 178 160 153 157 178 9 6 354 355 357 6 11 12 11 14 30 20 14
130 170 222 92 179 311 263 261 219 248 257 191 167 128 182 192 184 179 176 171 169 164 165 165 167 177 167 162 165 158 48 10 10 1 356 359 15 14 19 19 25 15 7 4
147 177 323 237 199 182 196 243 204 202 156 138 133 149 167 182 183 176 170 165 161 159 161 163 169 167 167 168 179 156 59 14 7 3 14 19 19 13 23 18 22 6 353 344
160 173 216 196 165 195 169 267 179 178 167 159 162 191 133 167 163 152 150 149 150 153 159 166 164 163 183 176 184 148 43 1 6 32 35 39 29 28 13 2 0 344 342 328
137 179 249 236 155 160 200 20 162 181 167 166 184 52 102 140 138 140 142 143 145 153 162 168 153 172 183 180 182 134 274 307 18 46 29 31 37 23 13 10 17 3 327 311
125 166 246 147 143 208 130 126 163 173 174 172 133 122 139 140 138 142 143 146 152 153 159 151 157 182 181 184 168 185 271 289 308 296 277 282 312 311 304 321 339 334 320 306
187 195 81 189 135 131 154 150 174 170 169 160 141 148 149 147 148 149 150 152 159 160 156 159 171 188 179 171 177 231 280 294 315 302 266 268 281 290 285 266 288 298 304 314
148 185 208 198 194 182 185 206 155 152 159 166 153 152 151 153 153 154 156 160 160 160 164 165 175 181 189 166 193 269 281 290 319 332 344 309 291 277 277 276 276 273 282 296
252 240 253 239 219 180 155 139 133 134 156 164 150 159 156 156 159 159 160 159 164 165 168 168 169 178 189 204 202 223 260 268 310 317 320 312 298 288 282 265 267 282 279 283
198 196 192 195 184 169 158 166 158 145 143 155 159 155 157 156 159 158 159 158 163 166 165 160 167 177 178 171 179 211 248 193 2 310 312 312 319 322 228 248 264 245 254 252
305 192 149 58 143 160 161 161 157 155 153 151 149 151 155 150 158 153 156 163 161 159 159 159 163 161 158 151 158 177 257 268 290 270 308 324 321 308 315 273 231 248 247 242
244 147 134 184 161 154 138 138 132 126 134 142 143 146 146 150 150 158 161 160 156 156 159 161 165 160 159 160 166 222 255 234 274 295 310 306 311 298 286 296 305 311 232 240
192 247 324 120 128 136 138 143 145 144 140 142 152 149 155 157 164 165 161 161 161 161 166 176 180 175 178 175 193 237 249 261 285 293 295 306 298 295 285 290 295 302 307 293
144 108 157 157 148 152 155 162 159 158 158 155 157 162 164 163 161 164 166 168 169 177 181 191 196 187 190 197 209 236 242 247 262 290 306 307 305 298 309 312 314 311 316 334
147 178 159 167 174 174 184 176 172 162 155 161 162 156 157 158 158 164 172 177 188 185 188 208 216 179 209 227 215 229 245 259 254 271 297 316 310 313 324 324 326 329 338 22
227 295 216 197 177 177 178 174 161 158 163 156 150 157 162 167 168 168 172 177 186 199 216 224 223 218 201 209 220 241 259 272 282 301 320 320 338 332 343 347 355 355 360 36
233 242 253 219 184 174 169 167 162 153 147 153 156 166 170 171 166 166 168 179 191 198 203 210 196 207 207 219 251 263 268 271 282 321 343 345 8 25 23 19 13 13 12 16
225 219 199 184 176 171 164 160 149 150 154 155 151 154 163 167 167 166 173 187 193 190 165 172 183 202 210 207 222 272 283 296 325 35 41 43 33 29 31 34 15 18 18 20
219 192 190 179 171 172 167 157 152 154 158 159 161 164 163 162 167 167 176 191 190 184 162 159 198 202 212 236 220 280 291 306 84 67 49 41 42 36 34 32 30 24 21 18
239 201 183 170 168 166 164 162 156 149 157 162 157 151 152 159 165 174 189 195 157 167 187 201 199 193 224 216 256 282 121 103 83 69 57 46 42 41 37 30 27 24 19 18
253 220 189 171 170 164 157 159 158 158 158 162 161 161 164 165 169 174 179 170 152 167 161 147 106 120 160 177 122 109 95 88 77 68 61 54 49 41 34 28 24 21 21 17
244 204 191 169 150 147 156 159 156 159 156 157 160 161 155 157 166 188 137 129 118 160 149 127 121 131 164 120 108 101 95 85 77 73 74 52 50 44 39 32 31 26 23 19
210 181 160 159 164 158 147 146 139 141 143 144 149 157 165 172 170 159 150 140 143 164 126 104 116 134 115 108 100 92 81 70 70 74 64 57 50 46 41 38 37 20 24 27
163 164 164 171 160 148 148 151 143 147 146 142 145 154 155 161 158 148 144 149 140 143 132 145 134 121 112 104 96 88 88 89 77 66 65 60 55 49 45 41 38 33 30 30
138 130 134 126 139 146 148 143 143 143 147 148 147 151 145 150 159 156 149 149 136 131 122 123 125 108 110 101 94 90 85 77 53 73 69 66 60 57 56 59 62 63 60 53